Longville, MN

6:07 PM CST on February 20, 2018 (GMT -0600)
Longville Municipal

Weather History for KXVG - September, 2013

Change the Weather History Date:

Tuesday, September 3, 2013

  Actual Average (KPWC) Record (KPWC)
Temperature  
Mean Temperature 60 °F -  
Max Temperature 80 °F 72 °F 86 °F (2004)
Min Temperature 41 °F 49 °F 21 °F (1999)
Degree Days  
Heating Degree Days 4    
Growing Degree Days 10 (Base 50)    
Moisture  
Dew Point 54 °F    
Average Humidity 80    
Maximum Humidity 100    
Minimum Humidity 50    
Precipitation  
Precipitation 0.00 in - - ()
Sea Level Pressure  
Sea Level Pressure 30.01 in    
Wind  
Wind Speed 2 mph (SW)    
Max Wind Speed 9 mph    
Max Gust Speed -    
Visibility 10 miles    
Events      
Averages and records for this station are not official NWS values.
T = Trace of Precipitation, MM = Missing Value Source: NWS Daily Summary

Daily Weather History Graph

Daily Weather History Graph

Search for Another Location

Airport or City:

Trip Planner

Search our weather history database for the weather conditions in past years. The results will help you decide how hot, cold, wet, or windy it might be!

Date:

Astronomy

Sep. 03, 2013 Rise Set
Actual Time 6:39 AM CDT 7:51 PM CDT
Civil Twilight 6:07 AM CDT 8:23 PM CDT
Nautical Twilight 5:30 AM CDT 9:00 PM CDT
Astronomical Twilight 4:49 AM CDT 9:40 PM CDT
Moon 4:50 AM CDT (9/3) 6:40 PM CDT (9/3)
Length of Visible Light 14h 15m
Length of Day
13h 12m
Waning Crescent, 3% of the Moon is Illuminated
Sep 3
Waning Crescent
Sep 5
New
Sep 12
First Quarter
Sep 19
Full
Sep 26
Last Quarter

Hourly Weather History & Observations

Time (CDT) Temp. Heat Index Dew Point Humidity Pressure Visibility Wind Dir Wind Speed Gust Speed Precip Events Conditions
12:16 AM 44.6 °F - 44.6 °F 100% 30.04 in 10.0 mi Calm Calm - N/A   Mostly Cloudy
12:36 AM 44.6 °F - 44.6 °F 100% 30.04 in 10.0 mi Calm Calm - N/A   Mostly Cloudy
12:56 AM 44.6 °F - 44.6 °F 100% 30.04 in 10.0 mi Calm Calm - N/A   Scattered Clouds
1:16 AM 44.6 °F - 44.6 °F 100% 30.04 in 10.0 mi Calm Calm - N/A   Clear
1:36 AM 44.6 °F - 44.6 °F 100% 30.04 in 10.0 mi Calm Calm - N/A   Clear
1:56 AM 44.6 °F - 42.8 °F 93% 30.03 in - Calm Calm - N/A   Unknown
2:16 AM 42.8 °F - 42.8 °F 100% 30.04 in 10.0 mi Calm Calm - N/A   Clear
2:36 AM 44.6 °F - 42.8 °F 93% 30.04 in 10.0 mi Calm Calm - N/A   Clear
2:56 AM 42.8 °F - 42.8 °F 100% 30.04 in 10.0 mi Calm Calm - N/A   Clear
3:16 AM 42.8 °F - 42.8 °F 100% 30.03 in 10.0 mi Calm Calm - N/A   Clear
3:36 AM 42.8 °F - 42.8 °F 100% 30.03 in 10.0 mi Calm Calm - N/A   Clear
3:56 AM 42.8 °F - 42.8 °F 100% 30.03 in 10.0 mi Calm Calm - N/A   Clear
4:16 AM 42.8 °F - 41.0 °F 93% 30.03 in 10.0 mi Calm Calm - N/A   Clear
4:36 AM 42.8 °F - 41.0 °F 93% 30.03 in 10.0 mi Calm Calm - N/A   Clear
4:56 AM 41.0 °F - 39.2 °F 93% 30.03 in 10.0 mi Calm Calm - N/A   Clear
5:16 AM 41.0 °F - 39.2 °F 93% 30.03 in 10.0 mi Calm Calm - N/A   Clear
5:36 AM 41.0 °F - 41.0 °F 100% 30.04 in 10.0 mi Calm Calm - N/A   Clear
5:56 AM 41.0 °F - 41.0 °F 100% 30.04 in 10.0 mi Calm Calm - N/A   Clear
6:16 AM 41.0 °F - 41.0 °F 100% 30.04 in 10.0 mi Calm Calm - N/A   Clear
6:36 AM 41.0 °F - 41.0 °F 100% 30.04 in 10.0 mi Calm Calm - N/A   Clear
6:56 AM 41.0 °F - 41.0 °F 100% 30.04 in 10.0 mi Calm Calm - N/A   Clear
7:16 AM 42.8 °F - 41.0 °F 93% 30.04 in 10.0 mi Calm Calm - N/A   Clear
7:36 AM 44.6 °F - 44.6 °F 100% 30.04 in 1.5 mi Calm Calm - N/A   Mostly Cloudy
7:56 AM 48.2 °F - 46.4 °F 93% 30.04 in 10.0 mi Calm Calm - N/A   Scattered Clouds
8:16 AM 55.4 °F - 53.6 °F 94% 30.05 in 10.0 mi SW 5.8 mph - N/A   Clear
8:36 AM 55.4 °F - 55.4 °F 100% 30.05 in 10.0 mi WSW 3.5 mph - N/A   Clear
8:56 AM 57.2 °F - 55.4 °F 94% 30.05 in 10.0 mi WSW 4.6 mph - N/A   Clear
9:16 AM 57.2 °F - 57.2 °F 100% 30.05 in 10.0 mi SW 3.5 mph - N/A   Clear
9:36 AM 60.8 °F - 57.2 °F 88% 30.04 in 10.0 mi SW 5.8 mph - N/A   Clear
9:56 AM 60.8 °F - 55.4 °F 82% 30.04 in 10.0 mi SW 5.8 mph - N/A   Clear
10:16 AM 62.6 °F - 57.2 °F 82% 30.04 in 10.0 mi SSW 5.8 mph - N/A   Clear
10:36 AM 64.4 °F - 57.2 °F 77% 30.04 in 10.0 mi SSW 5.8 mph - N/A   Clear
10:56 AM 66.2 °F - 57.2 °F 73% 30.04 in 10.0 mi SSW 6.9 mph - N/A   Clear
11:16 AM 66.2 °F - 57.2 °F 73% 30.03 in 10.0 mi SSW 8.1 mph - N/A   Clear
11:36 AM 66.2 °F - 57.2 °F 73% 30.03 in 10.0 mi SSW 5.8 mph - N/A   Clear
11:56 AM 69.8 °F - 57.2 °F 64% 30.03 in 10.0 mi SW 4.6 mph - N/A   Clear
12:16 PM 71.6 °F - 57.2 °F 60% 30.01 in 10.0 mi SW 8.1 mph - N/A   Clear
12:36 PM 71.6 °F - 57.2 °F 60% 30.01 in 10.0 mi SSW 6.9 mph - N/A   Clear
12:56 PM 73.4 °F - 57.2 °F 57% 30.01 in 10.0 mi SSW 5.8 mph - N/A   Clear
1:16 PM 75.2 °F - 57.2 °F 53% 30.01 in 10.0 mi South 4.6 mph - N/A   Clear
1:36 PM 75.2 °F - 57.2 °F 53% 30.00 in 10.0 mi SSW 6.9 mph - N/A   Clear
1:56 PM 75.2 °F - 57.2 °F 53% 30.00 in 10.0 mi WSW 6.9 mph - N/A   Clear
2:16 PM 77.0 °F - 57.2 °F 50% 30.00 in 10.0 mi SW 8.1 mph - N/A   Clear
2:36 PM 77.0 °F - 59.0 °F 54% 29.99 in 10.0 mi SSW 9.2 mph - N/A   Clear
2:56 PM 78.8 °F - 59.0 °F 51% 29.99 in 10.0 mi SSW 6.9 mph - N/A   Clear
3:15 PM 78.8 °F - 60.8 °F 54% 29.98 in 10.0 mi South 8.1 mph - N/A   Clear
3:36 PM 78.8 °F - 60.8 °F 54% 29.98 in 10.0 mi SW 5.8 mph - N/A   Clear
3:56 PM 78.8 °F - 60.8 °F 54% 29.97 in 10.0 mi SW 5.8 mph - N/A   Clear
4:16 PM 78.8 °F - 60.8 °F 54% 29.97 in 10.0 mi SSW 6.9 mph - N/A   Clear
4:36 PM 80.6 °F 81.5 °F 60.8 °F 51% 29.97 in 10.0 mi SW 6.9 mph - N/A   Clear
4:56 PM 78.8 °F - 60.8 °F 54% 29.96 in 10.0 mi SSW 4.6 mph - N/A   Clear
5:16 PM 75.2 °F - 60.8 °F 61% 29.96 in 10.0 mi SSW 4.6 mph - N/A   Clear
5:35 PM 78.8 °F - 62.6 °F 57% 29.96 in 10.0 mi SSW 4.6 mph - N/A   Clear
5:55 PM 78.8 °F - 62.6 °F 57% 29.96 in 10.0 mi SW 3.5 mph - N/A   Clear
6:15 PM 78.8 °F - 62.6 °F 57% 29.96 in 10.0 mi SW 4.6 mph - N/A   Clear
6:36 PM 77.0 °F - 60.8 °F 57% 29.96 in 10.0 mi WSW 4.6 mph - N/A   Clear
6:56 PM 75.2 °F - 60.8 °F 61% 29.96 in 10.0 mi WSW 4.6 mph - N/A   Clear
7:15 PM 75.2 °F - 59.0 °F 57% 29.96 in 10.0 mi WSW 5.8 mph - N/A   Clear
7:35 PM 73.4 °F - 60.8 °F 65% 29.96 in 10.0 mi WSW 3.5 mph - N/A   Clear
7:56 PM 66.2 °F - 62.6 °F 88% 29.96 in 10.0 mi Calm Calm - N/A   Clear
8:16 PM 62.6 °F - 60.8 °F 94% 29.96 in 10.0 mi Calm Calm - N/A   Clear
8:36 PM 62.6 °F - 60.8 °F 94% 29.97 in 10.0 mi Calm Calm - N/A   Clear
8:56 PM 60.8 °F - 60.8 °F 100% 29.97 in 10.0 mi Calm Calm - N/A   Clear
9:16 PM 60.8 °F - 60.8 °F 100% 29.98 in 10.0 mi WSW 4.6 mph - N/A   Clear
9:36 PM 64.4 °F - 60.8 °F 88% 29.98 in 10.0 mi SW 3.5 mph - N/A   Clear
9:56 PM 66.2 °F - 59.0 °F 78% 29.98 in 10.0 mi SW 4.6 mph - N/A   Clear
10:16 PM 66.2 °F - 59.0 °F 78% 29.98 in 10.0 mi SW 4.6 mph - N/A   Clear
10:36 PM 66.2 °F - 59.0 °F 78% 29.98 in 10.0 mi SW 4.6 mph - N/A   Clear
10:56 PM 66.2 °F - 60.8 °F 83% 29.98 in 10.0 mi SW 4.6 mph - N/A   Clear
11:16 PM 66.2 °F - 60.8 °F 83% 29.99 in 10.0 mi WSW 4.6 mph - N/A   Clear
11:36 PM 66.2 °F - 60.8 °F 83% 29.99 in 10.0 mi SW 5.8 mph - N/A   Clear
11:55 PM 66.2 °F - 60.8 °F 83% 30.00 in 10.0 mi West 4.6 mph - N/A   Clear